Shreveport, LA

12:36 PM CST on February 13, 2016 (GMT -0600)
Shreveport Downtown

Weather History for KDTN - January, 2014

Change the Weather History Date:

Saturday, January 4, 2014

  Actual Average (KSHV) Record (KSHV)
Temperature  
Mean Temperature 44 °F 46 °F  
Max Temperature 59 °F 57 °F 82 °F (1997)
Min Temperature 30 °F 36 °F 13 °F (1911)
Degree Days  
Heating Degree Days 20 19  
Month to date heating degree days 76  
Since 1 July heating degree days 978  
Cooling Degree Days 0 0  
Month to date cooling degree days 0  
Year to date cooling degree days 0  
Moisture  
Dew Point 37 °F    
Average Humidity 67    
Maximum Humidity 77    
Minimum Humidity 57    
Precipitation  
Precipitation 0.00 in 0.13 in 4.20 in (1946)
Month to date precipitation 0.51  
Year to date precipitation 0.51  
Snow  
Snow 0.00 in - - ()
Month to date snowfall  
Since 1 July snowfall  
Snow Depth -    
Sea Level Pressure  
Sea Level Pressure 30.00 in    
Wind  
Wind Speed 11 mph (SSE)    
Max Wind Speed 18 mph    
Max Gust Speed 23 mph    
Visibility 10 miles    
Events      
T = Trace of Precipitation, MM = Missing Value Source: NWS Daily Summary

Daily Weather History Graph

Daily Weather History Graph

Search for Another Location

Airport or City:

Trip Planner

Search our weather history database for the weather conditions in past years. The results will help you decide how hot, cold, wet, or windy it might be!

Date:

Astronomy

Jan. 04, 2014 Rise Set
Actual Time 7:17 AM CST 5:22 PM CST
Civil Twilight 6:50 AM CST 5:49 PM CST
Nautical Twilight 6:19 AM CST 6:20 PM CST
Astronomical Twilight 5:49 AM CST 6:50 PM CST
Moon 9:36 AM CST (1/4) 9:28 PM CST (1/4)
Length of Visible Light 10h 59m
Length of Day
10h 05m
Waxing Crescent, 15% of the Moon is Illuminated
Jan 4
Waxing Crescent
Jan 7
First Quarter
Jan 15
Full
Jan 23
Last Quarter
Jan 30
New

Hourly Weather History & Observations

Time (CST) Temp. Windchill Dew Point Humidity Pressure Visibility Wind Dir Wind Speed Gust Speed Precip Events Conditions
12:53 AM 32.0 °F 24.2 °F 21.0 °F 64% 30.19 in 10.0 mi SSE 9.2 mph - N/A   Clear
1:53 AM 32.0 °F 24.8 °F 21.0 °F 64% 30.19 in 10.0 mi SSE 8.1 mph - N/A   Clear
2:53 AM 30.0 °F 22.4 °F 21.0 °F 69% 30.18 in 10.0 mi SE 8.1 mph - N/A   Clear
3:53 AM 30.9 °F 22.2 °F 21.0 °F 67% 30.16 in 10.0 mi SE 10.4 mph - N/A   Clear
4:53 AM 32.0 °F 23.0 °F 21.9 °F 66% 30.15 in 10.0 mi SSE 11.5 mph - N/A   Clear
5:53 AM 32.0 °F 24.2 °F 21.9 °F 66% 30.14 in 10.0 mi SSE 9.2 mph - N/A   Clear
6:53 AM 32.0 °F 24.2 °F 24.1 °F 73% 30.13 in 10.0 mi SE 9.2 mph - N/A   Clear
7:53 AM 33.1 °F 24.9 °F 25.0 °F 72% 30.13 in 10.0 mi SSE 10.4 mph - N/A   Mostly Cloudy
8:53 AM 37.0 °F 28.1 °F 28.0 °F 70% 30.11 in 10.0 mi SSE 15.0 mph - N/A   Overcast
9:53 AM 39.9 °F 32.5 °F 30.9 °F 70% 30.10 in 10.0 mi SE 12.7 mph 23.0 mph N/A   Overcast
10:53 AM 46.0 °F 39.9 °F 34.0 °F 63% 30.06 in 10.0 mi SSE 13.8 mph - N/A   Mostly Cloudy
11:53 AM 52.0 °F - 37.0 °F 57% 30.02 in 10.0 mi SSE 10.4 mph - N/A   Clear
12:53 PM 55.0 °F - 39.9 °F 57% 29.96 in 10.0 mi SSE 12.7 mph - N/A   Overcast
1:53 PM 59.0 °F - 44.1 °F 58% 29.94 in 10.0 mi South 17.3 mph - N/A   Overcast
2:53 PM 59.0 °F - 45.0 °F 60% 29.92 in 10.0 mi South 15.0 mph 21.9 mph N/A   Overcast
3:53 PM 59.0 °F - 45.0 °F 60% 29.90 in 10.0 mi South 18.4 mph 23.0 mph N/A   Overcast
4:53 PM 57.9 °F - 46.0 °F 65% 29.89 in 10.0 mi South 15.0 mph - N/A   Overcast
5:53 PM 57.9 °F - 46.0 °F 65% 29.88 in 10.0 mi South 15.0 mph 21.9 mph N/A   Overcast
6:53 PM 57.9 °F - 46.9 °F 67% 29.88 in 10.0 mi South 11.5 mph - N/A   Overcast
7:53 PM 57.9 °F - 46.9 °F 67% 29.90 in 10.0 mi South 11.5 mph - N/A   Overcast
8:53 PM 57.0 °F - 48.0 °F 72% 29.90 in 10.0 mi South 11.5 mph 19.6 mph N/A   Overcast
9:53 PM 57.0 °F - 48.0 °F 72% 29.89 in 10.0 mi South 11.5 mph - N/A   Overcast
10:53 PM 57.0 °F - 48.0 °F 72% 29.88 in 10.0 mi SE 6.9 mph - N/A   Overcast
11:07 PM 57.2 °F - 48.2 °F 72% 29.88 in 10.0 mi SE 6.9 mph - N/A   Overcast
11:33 PM 55.4 °F - 48.2 °F 77% 29.87 in 10.0 mi SE 10.4 mph - N/A   Overcast
11:53 PM 55.9 °F - 48.9 °F 77% 29.87 in 10.0 mi SSE 11.5 mph - N/A   Overcast